Location: Hamilton
(37.7830°S, 175.2830°E)
Time: 22:59:13
(UTC+12:00)

ISS - Visible Passes

Search period start: 14 May 2021 00:00
Search period end: 24 May 2021 00:00
Orbit: 417 x 422 km, 51.6° (Epoch: 14 May)

Date Brightness Start Highest point End Pass type
(mag) Time Alt. Az. Time Alt. Az. Time Alt. Az.
19 May -0.6 06:26:23 10° N 06:28:47 18° NE 06:31:12 10° E visible
20 May 0.0 05:41:30 10° NE 05:41:32 10° NE 05:41:34 10° NE visible
21 May -3.0 06:27:03 10° NW 06:30:25 58° NE 06:33:48 10° ESE visible
22 May -1.9 05:39:58 10° NNW 05:43:02 32° NE 05:46:08 10° ESE visible
23 May -1.1 04:55:41 18° NE 04:55:42 18° NE 04:58:07 10° E visible
23 May -3.3 06:28:58 10° WNW 06:32:16 44° SW 06:35:36 10° SE visible
